S54MI-13 Weather Reports


Display with metric or nautical units.
time (UTC)temp
F
wind
direction
speed
MPH
gust
MPH
rain 1hr
in
rain 24hr
in
rain mn
in
humidity
%
barometer
mb
20260906044018 73 90 1.0 3.0 0.00 0.00 0.00 58
20260906042906 73 100 1.0 3.0 0.00 0.00 0.00 59
20260906041631 73 90 0.0 3.0 0.00 0.00 0.00 59
20260906040422 72 90 2.0 2.0 0.00 0.00 0.00 59
20260906035228 72 90 1.0 2.0 0.00 0.00 0.00 60
20260906034034 0 78 1.0 3.0 0.00 0.00 0.00
20260906032819 71 0.0 1.0 0.00 0.00 0.00 61
20260906031632 72 90 0.0 2.0 0.00 0.00 0.00 61
20260906030428 72 90 1.0 1.0 0.00 0.00 0.00 61
20260906025254 72 119 1.0 3.0 0.00 0.00 0.00 60
20260906024022 73 90 0.0 1.0 0.00 0.00 0.00 60
20260906022914 0 94 1.0 1.0 0.00 0.00 0.00
20260906021620 0 0.0 0.0 0.00 0.00 0.00
20260906020418 73 0.0 0.0 0.00 0.00 0.00 61
20260906015247 73 0.0 0.0 0.00 0.00 0.00 62
20260906014024 73 0.0 0.0 0.00 0.00 0.00 62
20260906012816 73 0.0 0.0 0.00 0.00 0.00 63
20260906011642 73 0.0 0.0 0.00 0.00 0.00 63
20260906010420 73 0.0 0.0 0.00 0.00 0.00 65
20260906005220 73 0.0 0.0 0.00 0.00 0.00 65
20260906004046 73 0.0 0.0 0.00 0.00 0.00 65
20260906002820 73 0.0 0.0 0.00 0.00 0.00 66
20260906001639 73 0.0 0.0 0.00 0.00 0.00 66
20260906000418 73 0.0 0.0 0.00 0.00 0.00 65
20260905235234 74 0.0 0.0 0.00 0.00 0.00 66
20260905234025 74 0.0 0.0 0.00 0.00 0.00 66
20260905232854 74 0.0 0.0 0.00 0.00 0.00 66
20260905231634 74 0.0 0.0 0.00 0.00 0.00 66
20260905230418 74 0.0 0.0 0.00 0.00 0.00 66
20260905225234 75 0.0 0.0 0.00 0.00 0.00 67
20260905224036 0 0.0 1.0 0.00 0.00 0.00
20260905222832 75 100 2.0 3.0 0.00 0.00 0.00 67
20260905221629 75 97 2.0 3.0 0.00 0.00 0.00 67
20260905220430 75 93 2.0 3.0 0.00 0.00 0.00 68
20260905215226 75 96 2.0 4.0 0.00 0.00 0.00 69
20260905214018 75 90 2.0 4.0 0.00 0.00 0.00 73
20260905212824 75 180 0.0 2.0 0.00 0.00 0.00 75
20260905211644 75 0.0 1.0 0.00 0.00 0.00 78
20260905210422 75 0.0 1.0 0.00 0.00 0.00 80
20260905205242 75 0.0 0.0 0.00 0.00 0.00 81
20260905204102 76 0.0 0.0 0.00 0.00 0.00 80
20260905202840 76 0.0 0.0 0.00 0.00 0.00 80
20260905201638 76 0.0 0.0 0.00 0.00 0.00 80
20260905200438 76 0.0 0.0 0.00 0.00 0.00 79
20260905195232 76 0.0 0.0 0.00 0.00 0.00 80
20260905194022 76 0.0 0.0 0.00 0.00 0.00 79
20260905192828 76 0.0 0.0 0.00 0.00 0.00 79
20260905191638 76 0.0 0.0 0.00 0.00 0.00 78
20260905190449 77 0.0 1.0 0.00 0.00 0.00 78
20260905185219 77 0.0 0.0 0.00 0.00 0.00 77
20260905184039 77 0.0 0.0 0.00 0.00 0.00 76
20260905182837 77 0.0 0.0 0.00 0.00 0.00 76
20260905181704 78 0.0 0.0 0.00 0.00 0.00 75
20260905180432 78 0.0 0.0 0.00 0.00 0.00 75
20260905175220 79 0.0 0.0 0.00 0.00 0.00 74
20260905174026 80 0.0 2.0 0.00 0.00 0.00 72
20260905172818 81 0.0 0.0 0.00 0.00 0.00 70
20260905171638 0 68 1.0 2.0 0.00 0.00 0.00
20260905170442 83 0.0 2.0 0.00 0.00 0.00 67
20260905165219 84 0.0 1.0 0.00 0.00 0.00 64
20260905164028 85 0 0.0 2.0 0.00 0.00 0.00 62
20260905162820 86 0 0.0 2.0 0.00 0.00 0.00 58
20260905161626 88 258 2.0 2.0 0.00 0.00 0.00 45
20260905160432 88 196 2.0 5.0 0.00 0.00 0.00 44
20260905155215 89 225 2.0 4.0 0.00 0.00 0.00 45
20260905154016 89 217 3.0 4.0 0.00 0.00 0.00 45
20260905152825 89 231 4.0 5.0 0.00 0.00 0.00 46
20260905151630 90 219 3.0 5.0 0.00 0.00 0.00 47
20260905150421 90 239 4.0 6.0 0.00 0.00 0.00 47
20260905145237 91 215 4.0 6.0 0.00 0.00 0.00 48
20260905144019 91 195 3.0 4.0 0.00 0.00 0.00 48
20260905142821 92 196 4.0 6.0 0.00 0.00 0.00 45
20260905141616 93 266 2.0 4.0 0.00 0.00 0.00 47
20260905140422 93 260 1.0 2.0 0.00 0.00 0.00 47
20260905135235 93 231 4.0 6.0 0.00 0.00 0.00 47
20260905134100 92 240 3.0 4.0 0.00 0.00 0.00 46
20260905132817 92 244 3.0 6.0 0.00 0.00 0.00 46
20260905131642 91 313 3.0 4.0 0.00 0.00 0.00 48
20260905130424 91 336 3.0 4.0 0.00 0.00 0.00 52
20260905125228 90 322 3.0 4.0 0.00 0.00 0.00 57
20260905124035 90 312 2.0 3.0 0.00 0.00 0.00 56
20260905122829 89 317 2.0 3.0 0.00 0.00 0.00 56
20260905121620 90 349 2.0 6.0 0.00 0.00 0.00 50
20260905120422 89 239 2.0 6.0 0.00 0.00 0.00 53
20260905115218 88 343 2.0 3.0 0.00 0.00 0.00 53
20260905114044 87 345 3.0 4.0 0.00 0.00 0.00 52
20260905112856 86 353 2.0 4.0 0.00 0.00 0.00 48
20260905111642 85 327 2.0 6.0 0.00 0.00 0.00 48
20260905110418 89 337 2.0 2.0 0.00 0.00 0.00 45
20260905105218 90 0 2.0 3.0 0.00 0.00 0.00 43
20260905104035 91 314 2.0 2.0 0.00 0.00 0.00 43
20260905102815 91 244 1.0 3.0 0.00 0.00 0.00 42
20260905101636 90 254 1.0 2.0 0.00 0.00 0.00 41
20260905100431 90 259 1.0 4.0 0.00 0.00 0.00 40
20260905095259 90 288 1.0 2.0 0.00 0.00 0.00 40
20260905094023 89 0 1.0 4.0 0.00 0.00 0.00 40
20260905092834 87 249 1.0 2.0 0.00 0.00 0.00 41
20260905091651 86 4 1.0 3.0 0.00 0.00 0.00 40
20260905090503 86 259 1.0 3.0 0.00 0.00 0.00 40
20260905085322 85 344 1.0 1.0 0.00 0.00 0.00 41
20260905084020 85 353 1.0 3.0 0.00 0.00 0.00 42
20260905082850 84 270 1.0 2.0 0.00 0.00 0.00 42
20260905081630 84 345 2.0 3.0 0.00 0.00 0.00 43
20260905080434 86 256 1.0 3.0 0.00 0.00 0.00 42
20260905075237 86 224 1.0 3.0 0.00 0.00 0.00 42
20260905074015 85 146 3.0 5.0 0.00 0.00 0.00 41
20260905072838 84 204 2.0 4.0 0.00 0.00 0.00 41
20260905071636 83 155 3.0 4.0 0.00 0.00 0.00 41
20260905070435 82 154 4.0 8.0 0.00 0.00 0.00 39
20260905065228 81 162 4.0 5.0 0.00 0.00 0.00 39
20260905064054 79 134 5.0 6.0 0.00 0.00 0.00 39
20260905062840 78 120 4.0 6.0 0.00 0.00 0.00 39
20260905061621 76 146 3.0 5.0 0.00 0.00 0.00 41
20260905060424 74 0.0 0.0 0.00 0.00 0.00 42
20260905055216 74 0.0 0.0 0.00 0.00 0.00 41
20260905054022 73 0.0 0.0 0.00 0.00 0.00 41
20260905052828 73 0.0 0.0 0.00 0.00 0.00 42
20260905051616 73 0.0 0.0 0.00 0.00 0.00 42
20260905050426 73 0.0 0.0 0.00 0.00 0.00 42
20260905045218 73 0.0 0.0 0.00 0.00 0.00 42